Queensbury, NY

12:21 PM EST on December 05, 2016 (GMT -0500)
Bennett Memorial

Weather History for KGFL - February, 2012

Change the Weather History Date:

Friday, February 24, 2012

  Actual Average Record
Temperature  
Mean Temperature 30 °F 24 °F  
Max Temperature 35 °F 35 °F 55 °F (1984)
Min Temperature 24 °F 12 °F -26 °F (2015)
Degree Days  
Heating Degree Days 35 42  
Month to date heating degree days 861 1021  
Since 1 July heating degree days 4338 5417  
Cooling Degree Days 0 0  
Month to date cooling degree days 0 0  
Year to date cooling degree days 0 0  
Moisture  
Dew Point 30 °F    
Average Humidity 85    
Maximum Humidity 100    
Minimum Humidity 70    
Precipitation  
Precipitation 0.34 in 0.08 in 1.26 in (1975)
Month to date precipitation 0.40 1.68  
Year to date precipitation 2.83 4.54  
Sea Level Pressure  
Sea Level Pressure 29.48 in    
Wind  
Wind Speed 2 mph (South)    
Max Wind Speed 13 mph    
Max Gust Speed 17 mph    
Visibility 5 miles    
Events Fog , Rain , Snow    
T = Trace of Precipitation, MM = Missing Value Source: NWS Daily Summary

Daily Weather History Graph

Daily Weather History Graph

Search for Another Location

Airport or City:

Trip Planner

Search our weather history database for the weather conditions in past years. The results will help you decide how hot, cold, wet, or windy it might be!

Date:

Astronomy

Feb. 24, 2012 Rise Set
Actual Time 6:39 AM EST 5:36 PM EST
Civil Twilight 6:10 AM EST 6:05 PM EST
Nautical Twilight 5:37 AM EST 6:38 PM EST
Astronomical Twilight 5:04 AM EST 7:11 PM EST
Moon 7:26 AM EST (2/24) 8:44 PM EST (2/24)
Length of Visible Light 11h 54m
Length of Day
10h 56m
Waxing Crescent, 7% of the Moon is Illuminated
Feb 24
Waxing Crescent
Feb 29
First Quarter
Mar 8
Full
Mar 14
Last Quarter
Mar 22
New

Hourly Weather History & Observations

Time (EST) Temp. Windchill Dew Point Humidity Pressure Visibility Wind Dir Wind Speed Gust Speed Precip Events Conditions
12:53 AM 26.1 °F - 23.0 °F 88% 29.77 in 10.0 mi Calm Calm - N/A   Clear
1:53 AM 27.0 °F - 24.1 °F 89% 29.77 in 10.0 mi Calm Calm - N/A   Clear
2:53 AM 27.0 °F - 24.1 °F 89% 29.77 in 10.0 mi Calm Calm - N/A   Clear
3:53 AM 28.0 °F - 25.0 °F 88% 29.76 in 10.0 mi Calm Calm - N/A   Clear
4:53 AM 28.0 °F - 26.1 °F 92% 29.75 in 10.0 mi Calm Calm - N/A   Partly Cloudy
5:53 AM 28.0 °F - 27.0 °F 96% 29.74 in 10.0 mi Calm Calm - N/A   Overcast
6:53 AM 28.9 °F - 27.0 °F 92% 29.72 in 10.0 mi Calm Calm - N/A   Overcast
7:53 AM 30.0 °F - 27.0 °F 88% 29.74 in 8.0 mi Calm Calm - N/A   Overcast
8:53 AM 30.9 °F - 27.0 °F 85% 29.73 in 5.0 mi Calm Calm - 0.00 in   Overcast
9:53 AM 33.1 °F - 27.0 °F 78% 29.72 in 10.0 mi Calm Calm - N/A   Overcast
10:53 AM 34.0 °F 31.0 °F 27.0 °F 75% 29.68 in 10.0 mi North 3.5 mph - N/A   Overcast
11:53 AM 34.0 °F - 27.0 °F 75% 29.64 in 10.0 mi Calm Calm - N/A   Overcast
12:53 PM 34.0 °F - 27.0 °F 75% 29.59 in 10.0 mi Calm Calm - N/A   Overcast
1:27 PM 35.6 °F - 26.6 °F 70% 29.54 in 10.0 mi Calm Calm - N/A   Overcast
1:53 PM 35.1 °F - 27.0 °F 72% 29.55 in 10.0 mi Calm Calm - N/A   Overcast
2:53 PM 34.0 °F 31.0 °F 28.9 °F 82% 29.53 in 10.0 mi SW 3.5 mph - 0.00 in   Overcast
3:26 PM 33.8 °F - 30.2 °F 87% 29.50 in 2.0 mi Calm Calm - 0.03 in Rain Light Rain
3:46 PM 32.0 °F - 32.0 °F 100% 29.48 in 4.0 mi Calm Calm - 0.05 in   Overcast
3:53 PM 32.0 °F - 32.0 °F 100% 29.49 in 4.0 mi Calm Calm - 0.05 in   Overcast
4:14 PM 32.0 °F - 32.0 °F 100% 29.46 in 2.0 mi Calm Calm - 0.01 in   Overcast
4:23 PM 32.0 °F - 32.0 °F 100% 29.44 in 1.8 mi Calm Calm - 0.03 in   Overcast
4:37 PM 32.0 °F 28.7 °F 32.0 °F 100% 29.42 in 2.5 mi East 3.5 mph - 0.04 in   Overcast
4:53 PM 30.9 °F - 30.9 °F 100% 29.43 in 3.0 mi Calm Calm - 0.04 in   Overcast
5:22 PM 30.2 °F - 30.2 °F 100% 29.39 in 2.0 mi Calm Calm - 0.01 in   Overcast
5:29 PM 30.2 °F - 30.2 °F 100% 29.38 in 1.8 mi Calm Calm - 0.01 in   Overcast
5:34 PM 30.2 °F 25.4 °F 30.2 °F 100% 29.38 in 2.0 mi WNW 4.6 mph - 0.02 in   Overcast
5:53 PM 32.0 °F 26.4 °F 32.0 °F 100% 29.43 in 2.0 mi NW 5.8 mph - 0.06 in   Overcast
6:14 PM 32.0 °F 24.8 °F 32.0 °F 100% 29.39 in 3.0 mi West 8.1 mph - 0.03 in   Overcast
6:23 PM 32.0 °F 26.4 °F 32.0 °F 100% 29.40 in 2.5 mi West 5.8 mph - 0.04 in Snow Light Snow
6:35 PM 32.0 °F 27.5 °F 32.0 °F 100% 29.40 in 1.5 mi WSW 4.6 mph - 0.05 in Snow Light Snow
6:53 PM 32.0 °F - 32.0 °F 100% 29.42 in 1.8 mi Calm Calm - 0.07 in Snow Light Snow
7:15 PM 32.0 °F - 32.0 °F 100% 29.40 in 1.2 mi Calm Calm - 0.01 in Snow Light Snow
7:29 PM 32.0 °F 28.7 °F 32.0 °F 100% 29.40 in 1.0 mi ESE 3.5 mph - 0.03 in Snow Light Snow
7:51 PM 32.0 °F 25.6 °F 32.0 °F 100% 29.38 in 0.8 mi ESE 6.9 mph - 0.05 in Snow Light Snow
7:53 PM 32.0 °F 24.8 °F 32.0 °F 100% 29.40 in 0.5 mi ESE 8.1 mph - 0.06 in Fog , Snow Snow
8:15 PM 30.2 °F 24.3 °F 30.2 °F 100% 29.36 in 0.8 mi East 5.8 mph - 0.02 in Snow Light Snow
8:30 PM 30.2 °F 26.7 °F 30.2 °F 100% 29.36 in 1.2 mi ESE 3.5 mph - 0.03 in Snow Light Snow
8:46 PM 32.0 °F - 32.0 °F 100% 29.34 in 2.5 mi Calm Calm - 0.03 in Snow Light Snow
8:53 PM 32.0 °F 28.7 °F 32.0 °F 100% 29.36 in 2.5 mi SE 3.5 mph - 0.03 in Snow Light Snow
9:18 PM 32.0 °F 28.7 °F 32.0 °F 100% 29.31 in 1.8 mi SE 3.5 mph - 0.01 in Snow Light Snow
9:23 PM 32.0 °F - 32.0 °F 100% 29.31 in 2.0 mi Calm Calm - 0.01 in Snow Light Snow
9:53 PM 32.0 °F 27.5 °F 32.0 °F 100% 29.32 in 4.0 mi SSW 4.6 mph - 0.01 in   Overcast
10:17 PM 32.0 °F - 32.0 °F 100% 29.28 in 2.5 mi Calm Calm - N/A   Overcast
10:38 PM 32.0 °F - 32.0 °F 100% 29.26 in 2.5 mi Calm Calm - N/A   Overcast
10:53 PM 32.0 °F 28.7 °F 32.0 °F 100% 29.28 in 2.5 mi South 3.5 mph - 0.00 in   Overcast
11:13 PM 33.8 °F 28.6 °F 33.8 °F 100% 29.25 in 4.0 mi South 5.8 mph - N/A   Overcast
11:38 PM 33.8 °F 26.4 °F 33.8 °F 100% 29.23 in 8.0 mi South 9.2 mph - N/A   Overcast
11:53 PM 33.8 °F 24.8 °F 33.8 °F 100% 29.23 in 10.0 mi South 12.7 mph 17.3 mph N/A   Mostly Cloudy